Tracking 27405 objects as of 1-Jun-2023
HD Live streaming from Space Station
objects crossing your sky now

SPACEBEE-60

Track SPACEBEE-60 now!
10-day predictions


NORAD ID: 47433
Int'l Code: 2021-006W
Perigee: 236.9 km
Apogee: 257.4 km
Inclination: 97.4 °
Period: 89.3 minutes
Semi major axis: 6618 km
RCS: Unknown
Launch date: January 24, 2021
Source: United States (US)
Launch site: AIR FORCE EASTERN TEST RANGE (AFETR)
Your satellite tracking list
Your tracking list is empty




NASA's NSSDC Master Catalog

Two Line Element Set (TLE):
1 47433U 21006W   23151.90269218  .03234934  23369-1  38662-2 0  9998
2 47433  97.3708 218.6649 0015478 258.6049 101.3497 16.12484431130713
Source of the keplerian elements: AFSPC